Location: Unspecified
(0.0000°N, 0.0000°E)
Time: 15:05:31
(UTC+00:00)

Altair - Pass Details

Date: 14 March 2026
Orbit: 1502 x 1682 km, 47.2° (Epoch: 18 April)

Event Time Altitude Azimuth Distance (km) Brightness Sun altitude
Rises 05:27:45 0° 339° (NNW) 4,653 9.8 -10.4°
Reaches altitude 10° 05:31:11 10° 348° (NNW) 3,692 9.4 -9.5°
Maximum altitude 05:39:21 34° 50° (NE) 2,376 9.1 -7.5°
Drops below altitude 10° 05:47:45 10° 111° (ESE) 3,822 11.1 -5.4°
Sets 05:51:19 0° 119° (ESE) 4,837 11.4 -4.5°
